Year,Month,Day,Hour,Minute,Value (Times are PST for insolation in W/m^2)
2016,11,04,00,00,0.00
2016,11,04,00,01,0.00
2016,11,04,00,02,0.00
2016,11,04,00,03,0.00
2016,11,04,00,04,0.00
2016,11,04,00,05,0.00
2016,11,04,00,06,0.00
2016,11,04,00,07,0.00
2016,11,04,00,08,0.00
2016,11,04,00,09,0.00
2016,11,04,00,10,0.00
2016,11,04,00,11,0.00
2016,11,04,00,12,0.00
2016,11,04,00,13,0.00
2016,11,04,00,14,0.00
2016,11,04,00,15,0.00
2016,11,04,00,16,0.00
2016,11,04,00,17,0.00
2016,11,04,00,18,0.00
2016,11,04,00,19,0.00
2016,11,04,00,20,0.00
2016,11,04,00,21,0.00
2016,11,04,00,22,0.00
2016,11,04,00,23,0.00
2016,11,04,00,24,0.00
2016,11,04,00,25,0.00
2016,11,04,00,26,0.00
2016,11,04,00,27,0.00
2016,11,04,00,28,0.00
2016,11,04,00,29,0.00
2016,11,04,00,30,0.00
2016,11,04,00,31,0.00
2016,11,04,00,32,0.00
2016,11,04,00,33,0.00
2016,11,04,00,34,0.00
2016,11,04,00,35,0.00
2016,11,04,00,36,0.00
2016,11,04,00,37,0.00
2016,11,04,00,38,0.00
2016,11,04,00,39,0.00
2016,11,04,00,40,0.00
2016,11,04,00,41,0.00
2016,11,04,00,42,0.00
2016,11,04,00,43,0.00
2016,11,04,00,44,0.00
2016,11,04,00,45,0.00
2016,11,04,00,46,0.00
2016,11,04,00,47,0.00
2016,11,04,00,48,0.00
2016,11,04,00,49,0.00
2016,11,04,00,50,0.00
2016,11,04,00,51,0.00
2016,11,04,00,52,0.00
2016,11,04,00,53,0.00
2016,11,04,00,54,0.00
2016,11,04,00,55,0.00
2016,11,04,00,56,0.00
2016,11,04,00,57,0.00
2016,11,04,00,58,0.00
2016,11,04,00,59,0.00
2016,11,04,01,00,0.00
2016,11,04,01,01,0.00
2016,11,04,01,02,0.00
2016,11,04,01,03,0.00
2016,11,04,01,04,0.00
2016,11,04,01,05,0.00
2016,11,04,01,06,0.00
2016,11,04,01,07,0.00
2016,11,04,01,08,0.00
2016,11,04,01,09,0.00
2016,11,04,01,10,0.00
2016,11,04,01,11,0.00
2016,11,04,01,12,0.00
2016,11,04,01,13,0.00
2016,11,04,01,14,0.00
2016,11,04,01,15,0.00
2016,11,04,01,16,0.00
2016,11,04,01,17,0.00
2016,11,04,01,18,0.00
2016,11,04,01,19,0.00
2016,11,04,01,20,0.00
2016,11,04,01,21,0.00
2016,11,04,01,22,0.00
2016,11,04,01,23,0.00
2016,11,04,01,24,0.00
2016,11,04,01,25,0.00
2016,11,04,01,26,0.00
2016,11,04,01,27,0.00
2016,11,04,01,28,0.00
2016,11,04,01,29,0.00
2016,11,04,01,30,0.00
2016,11,04,01,31,0.00
2016,11,04,01,32,0.00
2016,11,04,01,33,0.00
2016,11,04,01,34,0.00
2016,11,04,01,35,0.00
2016,11,04,01,36,0.00
2016,11,04,01,37,0.00
2016,11,04,01,38,0.00
2016,11,04,01,39,0.00
2016,11,04,01,40,0.00
2016,11,04,01,41,0.00
2016,11,04,01,42,0.00
2016,11,04,01,43,0.00
2016,11,04,01,44,0.00
2016,11,04,01,45,0.00
2016,11,04,01,46,0.00
2016,11,04,01,47,0.00
2016,11,04,01,48,0.00
2016,11,04,01,49,0.00
2016,11,04,01,50,0.00
2016,11,04,01,51,0.00
2016,11,04,01,52,0.00
2016,11,04,01,53,0.00
2016,11,04,01,54,0.00
2016,11,04,01,55,0.00
2016,11,04,01,56,0.00
2016,11,04,01,57,0.00
2016,11,04,01,58,0.00
2016,11,04,01,59,0.00
2016,11,04,02,00,0.00
2016,11,04,02,01,0.00
2016,11,04,02,02,0.00
2016,11,04,02,03,0.00
2016,11,04,02,04,0.00
2016,11,04,02,05,0.00
2016,11,04,02,06,0.00
2016,11,04,02,07,0.00
2016,11,04,02,08,0.00
2016,11,04,02,09,0.00
2016,11,04,02,10,0.00
2016,11,04,02,11,0.00
2016,11,04,02,12,0.00
2016,11,04,02,13,0.00
2016,11,04,02,14,0.00
2016,11,04,02,15,0.00
2016,11,04,02,16,0.00
2016,11,04,02,17,0.00
2016,11,04,02,18,0.00
2016,11,04,02,19,0.00
2016,11,04,02,20,0.00
2016,11,04,02,21,0.00
2016,11,04,02,22,0.00
2016,11,04,02,23,0.00
2016,11,04,02,24,0.00
2016,11,04,02,25,0.00
2016,11,04,02,26,0.00
2016,11,04,02,27,0.00
2016,11,04,02,28,0.00
2016,11,04,02,29,0.00
2016,11,04,02,30,0.00
2016,11,04,02,31,0.00
2016,11,04,02,32,0.00
2016,11,04,02,33,0.00
2016,11,04,02,34,0.00
2016,11,04,02,35,0.00
2016,11,04,02,36,0.00
2016,11,04,02,37,0.00
2016,11,04,02,38,0.00
2016,11,04,02,39,0.00
2016,11,04,02,40,0.00
2016,11,04,02,41,0.00
2016,11,04,02,42,0.00
2016,11,04,02,43,0.00
2016,11,04,02,44,0.00
2016,11,04,02,45,0.00
2016,11,04,02,46,0.00
2016,11,04,02,47,0.00
2016,11,04,02,48,0.00
2016,11,04,02,49,0.00
2016,11,04,02,50,0.00
2016,11,04,02,51,0.00
2016,11,04,02,52,0.00
2016,11,04,02,53,0.00
2016,11,04,02,54,0.00
2016,11,04,02,55,0.00
2016,11,04,02,56,0.00
2016,11,04,02,57,0.00
2016,11,04,02,58,0.00
2016,11,04,02,59,0.00
2016,11,04,03,00,0.00
2016,11,04,03,01,0.00
2016,11,04,03,02,0.00
2016,11,04,03,03,0.00
2016,11,04,03,04,0.00
2016,11,04,03,05,0.00
2016,11,04,03,06,0.00
2016,11,04,03,07,0.00
2016,11,04,03,08,0.00
2016,11,04,03,09,0.00
2016,11,04,03,10,0.00
2016,11,04,03,11,0.00
2016,11,04,03,12,0.00
2016,11,04,03,13,0.00
2016,11,04,03,14,0.00
2016,11,04,03,15,0.00
2016,11,04,03,16,0.00
2016,11,04,03,17,0.00
2016,11,04,03,18,0.00
2016,11,04,03,19,0.00
2016,11,04,03,20,0.00
2016,11,04,03,21,0.00
2016,11,04,03,22,0.00
2016,11,04,03,23,0.00
2016,11,04,03,24,0.00
2016,11,04,03,25,0.00
2016,11,04,03,26,0.00
2016,11,04,03,27,0.00
2016,11,04,03,28,0.00
2016,11,04,03,29,0.00
2016,11,04,03,30,0.00
2016,11,04,03,31,0.00
2016,11,04,03,32,0.00
2016,11,04,03,33,0.00
2016,11,04,03,34,0.00
2016,11,04,03,35,0.00
2016,11,04,03,36,0.00
2016,11,04,03,37,0.00
2016,11,04,03,38,0.00
2016,11,04,03,39,0.00
2016,11,04,03,40,0.00
2016,11,04,03,41,0.00
2016,11,04,03,42,0.00
2016,11,04,03,43,0.00
2016,11,04,03,44,0.00
2016,11,04,03,45,0.00
2016,11,04,03,46,0.00
2016,11,04,03,47,0.00
2016,11,04,03,48,0.00
2016,11,04,03,49,0.00
2016,11,04,03,50,0.00
2016,11,04,03,51,0.00
2016,11,04,03,52,0.00
2016,11,04,03,53,0.00
2016,11,04,03,54,0.00
2016,11,04,03,55,0.00
2016,11,04,03,56,0.00
2016,11,04,03,57,0.00
2016,11,04,03,58,0.00
2016,11,04,03,59,0.00
2016,11,04,04,00,0.00
2016,11,04,04,01,0.00
2016,11,04,04,02,0.00
2016,11,04,04,03,0.00
2016,11,04,04,04,0.00
2016,11,04,04,05,0.00
2016,11,04,04,06,0.00
2016,11,04,04,07,0.00
2016,11,04,04,08,0.00
2016,11,04,04,09,0.00
2016,11,04,04,10,0.00
2016,11,04,04,11,0.00
2016,11,04,04,12,0.00
2016,11,04,04,13,0.00
2016,11,04,04,14,0.00
2016,11,04,04,15,0.00
2016,11,04,04,16,0.00
2016,11,04,04,17,0.00
2016,11,04,04,18,0.00
2016,11,04,04,19,0.00
2016,11,04,04,20,0.00
2016,11,04,04,21,0.00
2016,11,04,04,22,0.00
2016,11,04,04,23,0.00
2016,11,04,04,24,0.00
2016,11,04,04,25,0.00
2016,11,04,04,26,0.00
2016,11,04,04,27,0.00
2016,11,04,04,28,0.00
2016,11,04,04,29,0.00
2016,11,04,04,30,0.00
2016,11,04,04,31,0.00
2016,11,04,04,32,0.00
2016,11,04,04,33,0.00
2016,11,04,04,34,0.00
2016,11,04,04,35,0.00
2016,11,04,04,36,0.00
2016,11,04,04,37,0.00
2016,11,04,04,38,0.00
2016,11,04,04,39,0.00
2016,11,04,04,40,0.00
2016,11,04,04,41,0.00
2016,11,04,04,42,0.00
2016,11,04,04,43,0.00
2016,11,04,04,44,0.00
2016,11,04,04,45,0.00
2016,11,04,04,46,0.00
2016,11,04,04,47,0.00
2016,11,04,04,48,0.00
2016,11,04,04,49,0.00
2016,11,04,04,50,0.00
2016,11,04,04,51,0.00
2016,11,04,04,52,0.00
2016,11,04,04,53,0.00
2016,11,04,04,54,0.00
2016,11,04,04,55,0.00
2016,11,04,04,56,0.00
2016,11,04,04,57,0.00
2016,11,04,04,58,0.00
2016,11,04,04,59,0.00
2016,11,04,05,00,0.00
2016,11,04,05,01,0.00
2016,11,04,05,02,0.00
2016,11,04,05,03,0.00
2016,11,04,05,04,0.00
2016,11,04,05,05,0.00
2016,11,04,05,06,0.00
2016,11,04,05,07,0.00
2016,11,04,05,08,0.00
2016,11,04,05,09,0.00
2016,11,04,05,10,0.00
2016,11,04,05,11,0.00
2016,11,04,05,12,0.00
2016,11,04,05,13,0.00
2016,11,04,05,14,0.00
2016,11,04,05,15,0.00
2016,11,04,05,16,0.00
2016,11,04,05,17,0.00
2016,11,04,05,18,0.00
2016,11,04,05,19,0.00
2016,11,04,05,20,0.00
2016,11,04,05,21,0.00
2016,11,04,05,22,0.00
2016,11,04,05,23,0.00
2016,11,04,05,24,0.00
2016,11,04,05,25,0.00
2016,11,04,05,26,0.00
2016,11,04,05,27,0.00
2016,11,04,05,28,0.00
2016,11,04,05,29,0.00
2016,11,04,05,30,0.00
2016,11,04,05,31,0.00
2016,11,04,05,32,0.00
2016,11,04,05,33,0.00
2016,11,04,05,34,0.00
2016,11,04,05,35,0.00
2016,11,04,05,36,0.00
2016,11,04,05,37,0.00
2016,11,04,05,38,0.00
2016,11,04,05,39,0.00
2016,11,04,05,40,0.00
2016,11,04,05,41,0.00
2016,11,04,05,42,0.00
2016,11,04,05,43,0.00
2016,11,04,05,44,0.00
2016,11,04,05,45,0.00
2016,11,04,05,46,0.00
2016,11,04,05,47,0.00
2016,11,04,05,48,0.00
2016,11,04,05,49,0.00
2016,11,04,05,50,0.00
2016,11,04,05,51,0.00
2016,11,04,05,52,0.00
2016,11,04,05,53,0.00
2016,11,04,05,54,0.00
2016,11,04,05,55,0.00
2016,11,04,05,56,0.00
2016,11,04,05,57,0.00
2016,11,04,05,58,0.00
2016,11,04,05,59,0.00
2016,11,04,06,00,0.00
2016,11,04,06,01,0.00
2016,11,04,06,02,0.00
2016,11,04,06,03,0.00
2016,11,04,06,04,0.00
2016,11,04,06,05,0.00
2016,11,04,06,06,0.00
2016,11,04,06,07,0.00
2016,11,04,06,08,0.00
2016,11,04,06,09,0.00
2016,11,04,06,10,0.00
2016,11,04,06,11,0.00
2016,11,04,06,12,0.00
2016,11,04,06,13,0.00
2016,11,04,06,14,0.00
2016,11,04,06,15,0.00
2016,11,04,06,16,0.00
2016,11,04,06,17,0.00
2016,11,04,06,18,0.00
2016,11,04,06,19,0.00
2016,11,04,06,20,0.00
2016,11,04,06,21,0.00
2016,11,04,06,22,0.00
2016,11,04,06,23,0.00
2016,11,04,06,24,0.00
2016,11,04,06,25,0.00
2016,11,04,06,26,0.00
2016,11,04,06,27,0.00
2016,11,04,06,28,0.00
2016,11,04,06,29,0.00
2016,11,04,06,30,0.00
2016,11,04,06,31,0.00
2016,11,04,06,32,0.00
2016,11,04,06,33,0.00
2016,11,04,06,34,0.00
2016,11,04,06,35,0.00
2016,11,04,06,36,0.00
2016,11,04,06,37,0.00
2016,11,04,06,38,0.00
2016,11,04,06,39,0.00
2016,11,04,06,40,0.00
2016,11,04,06,41,0.00
2016,11,04,06,42,0.00
2016,11,04,06,43,0.00
2016,11,04,06,44,0.00
2016,11,04,06,45,0.00
2016,11,04,06,46,0.00
2016,11,04,06,47,0.00
2016,11,04,06,48,0.00
2016,11,04,06,49,0.00
2016,11,04,06,50,0.00
2016,11,04,06,51,0.00
2016,11,04,06,52,0.00
2016,11,04,06,53,0.00
2016,11,04,06,54,0.00
2016,11,04,06,55,0.00
2016,11,04,06,56,0.00
2016,11,04,06,57,0.00
2016,11,04,06,58,0.00
2016,11,04,06,59,0.00
2016,11,04,07,00,0.00
2016,11,04,07,01,0.00
2016,11,04,07,02,0.00
2016,11,04,07,03,0.00
2016,11,04,07,04,0.00
2016,11,04,07,05,0.00
2016,11,04,07,06,0.00
2016,11,04,07,07,0.00
2016,11,04,07,08,0.00
2016,11,04,07,09,0.00
2016,11,04,07,10,0.00
2016,11,04,07,11,0.00
2016,11,04,07,12,0.00
2016,11,04,07,13,0.00
2016,11,04,07,14,0.00
2016,11,04,07,15,0.00
2016,11,04,07,16,0.00
2016,11,04,07,17,0.00
2016,11,04,07,18,0.00
2016,11,04,07,19,0.00
2016,11,04,07,20,0.00
2016,11,04,07,21,0.00
2016,11,04,07,22,0.00
2016,11,04,07,23,0.00
2016,11,04,07,24,0.00
2016,11,04,07,25,0.00
2016,11,04,07,26,0.00
2016,11,04,07,27,0.00
2016,11,04,07,28,0.00
2016,11,04,07,29,0.00
2016,11,04,07,30,0.00
2016,11,04,07,31,0.00
2016,11,04,07,32,0.00
2016,11,04,07,33,0.00
2016,11,04,07,34,0.00
2016,11,04,07,35,0.00
2016,11,04,07,36,0.00
2016,11,04,07,37,0.00
2016,11,04,07,38,0.00
2016,11,04,07,39,0.00
2016,11,04,07,40,0.00
2016,11,04,07,41,0.00
2016,11,04,07,42,0.00
2016,11,04,07,43,0.00
2016,11,04,07,44,0.00
2016,11,04,07,45,0.00
2016,11,04,07,46,0.00
2016,11,04,07,47,0.00
2016,11,04,07,48,0.00
2016,11,04,07,49,0.00
2016,11,04,07,50,0.00
2016,11,04,07,51,0.00
2016,11,04,07,52,0.00
2016,11,04,07,53,0.00
2016,11,04,07,54,0.00
2016,11,04,07,55,0.00
2016,11,04,07,56,0.00
2016,11,04,07,57,4.20
2016,11,04,07,58,5.00
2016,11,04,07,59,6.90
2016,11,04,08,00,7.10
2016,11,04,08,01,9.00
2016,11,04,08,02,9.20
2016,11,04,08,03,11.00
2016,11,04,08,04,10.60
2016,11,04,08,05,9.00
2016,11,04,08,06,8.40
2016,11,04,08,07,6.30
2016,11,04,08,08,5.00
2016,11,04,08,09,5.00
2016,11,04,08,10,5.00
2016,11,04,08,11,5.00
2016,11,04,08,12,5.00
2016,11,04,08,13,5.00
2016,11,04,08,14,5.00
2016,11,04,08,15,6.30
2016,11,04,08,16,7.00
2016,11,04,08,17,7.00
2016,11,04,08,18,7.00
2016,11,04,08,19,7.00
2016,11,04,08,20,7.00
2016,11,04,08,21,7.00
2016,11,04,08,22,7.00
2016,11,04,08,23,9.00
2016,11,04,08,24,11.10
2016,11,04,08,25,12.30
2016,11,04,08,26,14.30
2016,11,04,08,27,16.00
2016,11,04,08,28,16.00
2016,11,04,08,29,15.40
2016,11,04,08,30,14.60
2016,11,04,08,31,15.20
2016,11,04,08,32,14.00
2016,11,04,08,33,14.00
2016,11,04,08,34,14.00
2016,11,04,08,35,14.00
2016,11,04,08,36,14.00
2016,11,04,08,37,15.20
2016,11,04,08,38,16.00
2016,11,04,08,39,16.00
2016,11,04,08,40,17.50
2016,11,04,08,41,18.00
2016,11,04,08,42,18.80
2016,11,04,08,43,19.00
2016,11,04,08,44,19.00
2016,11,04,08,45,20.90
2016,11,04,08,46,21.00
2016,11,04,08,47,21.00
2016,11,04,08,48,21.00
2016,11,04,08,49,21.00
2016,11,04,08,50,21.00
2016,11,04,08,51,21.00
2016,11,04,08,52,21.60
2016,11,04,08,53,23.00
2016,11,04,08,54,23.00
2016,11,04,08,55,23.80
2016,11,04,08,56,25.00
2016,11,04,08,57,25.00
2016,11,04,08,58,25.50
2016,11,04,08,59,27.10
2016,11,04,09,00,28.00
2016,11,04,09,01,29.30
2016,11,04,09,02,31.40
2016,11,04,09,03,34.20
2016,11,04,09,04,38.00
2016,11,04,09,05,39.80
2016,11,04,09,06,43.40
2016,11,04,09,07,45.80
2016,11,04,09,08,47.00
2016,11,04,09,09,49.10
2016,11,04,09,10,51.20
2016,11,04,09,11,53.10
2016,11,04,09,12,54.00
2016,11,04,09,13,54.00
2016,11,04,09,14,53.70
2016,11,04,09,15,53.00
2016,11,04,09,16,53.00
2016,11,04,09,17,52.30
2016,11,04,09,18,51.00
2016,11,04,09,19,51.00
2016,11,04,09,20,51.00
2016,11,04,09,21,51.00
2016,11,04,09,22,51.00
2016,11,04,09,23,51.00
2016,11,04,09,24,52.40
2016,11,04,09,25,53.00
2016,11,04,09,26,53.00
2016,11,04,09,27,53.00
2016,11,04,09,28,53.00
2016,11,04,09,29,53.00
2016,11,04,09,30,53.00
2016,11,04,09,31,53.00
2016,11,04,09,32,53.00
2016,11,04,09,33,53.00
2016,11,04,09,34,53.00
2016,11,04,09,51,35.00
2016,11,04,09,52,36.80
2016,11,04,09,53,37.00
2016,11,04,09,54,38.90
2016,11,04,09,55,40.20
2016,11,04,09,56,44.10
2016,11,04,09,57,46.10
2016,11,04,09,58,47.30
2016,11,04,09,59,49.00
2016,11,04,10,00,49.40
2016,11,04,10,01,51.00
2016,11,04,10,02,51.70
2016,11,04,10,03,53.00
2016,11,04,10,04,53.00
2016,11,04,10,05,53.00
2016,11,04,10,06,53.50
2016,11,04,10,07,54.00
2016,11,04,10,08,54.00
2016,11,04,10,09,54.00
2016,11,04,10,10,54.00
2016,11,04,10,11,54.00
2016,11,04,10,12,54.00
2016,11,04,10,13,53.20
2016,11,04,10,14,51.40
2016,11,04,10,15,49.30
2016,11,04,10,16,47.20
2016,11,04,10,17,47.00
2016,11,04,10,18,47.10
2016,11,04,10,19,49.20
2016,11,04,10,20,51.20
2016,11,04,10,21,53.10
2016,11,04,10,22,54.00
2016,11,04,10,23,54.00
2016,11,04,10,24,54.00
2016,11,04,10,25,53.70
2016,11,04,10,26,53.00
2016,11,04,10,27,53.00
2016,11,04,10,28,53.00
2016,11,04,10,29,53.50
2016,11,04,10,30,55.00
2016,11,04,10,31,57.20
2016,11,04,10,32,59.20
2016,11,04,10,33,61.30
2016,11,04,10,34,62.00
2016,11,04,10,35,62.00
2016,11,04,10,36,62.00
2016,11,04,10,37,62.00
2016,11,04,10,38,62.00
2016,11,04,10,39,62.00
2016,11,04,10,40,60.20
2016,11,04,10,41,59.90
2016,11,04,10,42,58.00
2016,11,04,10,43,57.80
2016,11,04,10,44,56.00
2016,11,04,10,45,56.00
2016,11,04,10,46,56.50
2016,11,04,10,47,58.50
2016,11,04,10,48,61.00
2016,11,04,10,49,63.80
2016,11,04,10,50,65.80
2016,11,04,10,51,67.90
2016,11,04,10,52,69.00
2016,11,04,10,53,69.60
2016,11,04,10,54,71.20
2016,11,04,10,55,73.30
2016,11,04,10,56,75.30
2016,11,04,10,57,76.70
2016,11,04,10,58,78.50
2016,11,04,10,59,80.60
2016,11,04,11,00,82.60
2016,11,04,11,01,83.00
2016,11,04,11,02,83.00
2016,11,04,11,03,81.10
2016,11,04,11,04,79.00
2016,11,04,11,05,77.00
2016,11,04,11,06,77.00
2016,11,04,11,07,77.00
2016,11,04,11,08,76.80
2016,11,04,11,09,76.20
2016,11,04,11,10,77.00
2016,11,04,11,11,77.70
2016,11,04,11,12,79.70
2016,11,04,11,13,81.00
2016,11,04,11,14,81.00
2016,11,04,11,15,81.00
2016,11,04,11,16,81.00
2016,11,04,11,17,81.00
2016,11,04,11,18,81.00
2016,11,04,11,19,79.70
2016,11,04,11,20,77.60
2016,11,04,11,21,76.20
2016,11,04,11,22,76.00
2016,11,04,11,23,72.80
2016,11,04,11,24,72.00
2016,11,04,11,25,72.00
2016,11,04,11,26,72.00
2016,11,04,11,27,71.30
2016,11,04,11,28,55.90
2016,11,04,11,29,53.70
2016,11,04,11,30,50.40
2016,11,04,11,31,46.80
2016,11,04,11,32,45.50
2016,11,04,11,33,44.00
2016,11,04,11,34,44.60
2016,11,04,11,35,46.40
2016,11,04,11,36,47.80
2016,11,04,11,37,49.00
2016,11,04,11,38,50.10
2016,11,04,11,39,49.90
2016,11,04,11,40,50.20
2016,11,04,11,41,52.20
2016,11,04,11,42,53.70
2016,11,04,11,43,56.90
2016,11,04,11,44,59.50
2016,11,04,11,45,61.60
2016,11,04,11,46,62.00
2016,11,04,11,47,62.90
2016,11,04,11,48,63.00
2016,11,04,11,49,66.80
2016,11,04,11,50,74.40
2016,11,04,11,51,83.80
2016,11,04,11,52,91.40
2016,11,04,11,53,94.60
2016,11,04,11,54,92.40
2016,11,04,11,55,88.20
2016,11,04,11,56,81.80
2016,11,04,11,57,78.10
2016,11,04,11,58,75.30
2016,11,04,11,59,74.00
2016,11,04,12,00,74.90
2016,11,04,12,01,76.00
2016,11,04,12,02,75.00
2016,11,04,12,03,72.80
2016,11,04,12,04,70.10
2016,11,04,12,05,66.30
2016,11,04,12,06,63.60
2016,11,04,12,07,62.30
2016,11,04,12,08,62.00
2016,11,04,12,09,60.30
2016,11,04,12,10,60.00
2016,11,04,12,11,61.80
2016,11,04,12,12,62.90
2016,11,04,12,13,66.90
2016,11,04,12,14,69.20
2016,11,04,12,15,73.00
2016,11,04,12,16,79.60
2016,11,04,12,17,83.00
2016,11,04,12,18,82.50
2016,11,04,12,19,80.40
2016,11,04,12,20,79.70
2016,11,04,12,21,81.70
2016,11,04,12,22,83.40
2016,11,04,12,23,85.80
2016,11,04,12,24,89.30
2016,11,04,12,25,91.00
2016,11,04,12,26,91.00
2016,11,04,12,27,90.40
2016,11,04,12,28,88.70
2016,11,04,12,29,86.60
2016,11,04,12,30,83.80
2016,11,04,12,31,81.40
2016,11,04,12,32,81.00
2016,11,04,12,33,81.00
2016,11,04,12,34,79.20
2016,11,04,12,35,76.20
2016,11,04,12,36,73.90
2016,11,04,12,37,69.70
2016,11,04,12,38,66.80
2016,11,04,12,39,64.70
2016,11,04,12,40,62.80
2016,11,04,12,41,61.20
2016,11,04,12,42,58.00
2016,11,04,12,43,58.00
2016,11,04,12,44,58.70
2016,11,04,12,45,60.80
2016,11,04,12,46,62.50
2016,11,04,12,47,63.90
2016,11,04,12,48,65.00
2016,11,04,12,49,65.00
2016,11,04,12,50,63.80
2016,11,04,12,51,63.00
2016,11,04,12,52,63.00
2016,11,04,12,53,62.30
2016,11,04,12,54,62.00
2016,11,04,12,55,60.30
2016,11,04,12,56,58.30
2016,11,04,12,57,56.20
2016,11,04,12,58,54.20
2016,11,04,12,59,53.00
2016,11,04,13,00,53.00
2016,11,04,13,01,53.00
2016,11,04,13,02,53.00
2016,11,04,13,03,53.00
2016,11,04,13,04,53.00
2016,11,04,13,05,53.00
2016,11,04,13,06,53.00
2016,11,04,13,07,53.00
2016,11,04,13,08,53.00
2016,11,04,13,09,53.50
2016,11,04,13,10,54.00
2016,11,04,13,11,55.10
2016,11,04,13,12,56.00
2016,11,04,13,13,57.30
2016,11,04,13,14,59.30
2016,11,04,13,15,61.40
2016,11,04,13,16,62.00
2016,11,04,13,17,58.80
2016,11,04,13,18,56.30
2016,11,04,13,19,54.30
2016,11,04,13,20,54.00
2016,11,04,13,21,54.00
2016,11,04,13,22,54.10
2016,11,04,13,23,56.00
2016,11,04,13,24,56.30
2016,11,04,13,25,58.00
2016,11,04,13,26,58.40
2016,11,04,13,27,60.50
2016,11,04,13,28,62.30
2016,11,04,13,29,62.70
2016,11,04,13,30,61.30
2016,11,04,13,31,59.20
2016,11,04,13,32,57.10
2016,11,04,13,33,55.00
2016,11,04,13,34,54.00
2016,11,04,13,35,55.10
2016,11,04,13,36,57.20
2016,11,04,13,37,59.40
2016,11,04,13,38,61.40
2016,11,04,13,39,62.00
2016,11,04,13,40,58.80
2016,11,04,13,41,56.40
2016,11,04,13,42,53.40
2016,11,04,13,43,51.20
2016,11,04,13,44,49.20
2016,11,04,13,45,47.10
2016,11,04,13,46,47.10
2016,11,04,13,47,49.30
2016,11,04,13,48,51.50
2016,11,04,13,49,54.40
2016,11,04,13,50,57.00
2016,11,04,13,51,60.50
2016,11,04,13,52,62.90
2016,11,04,13,53,65.00
2016,11,04,13,54,65.00
2016,11,04,13,55,65.90
2016,11,04,13,56,67.00
2016,11,04,13,57,67.00
2016,11,04,13,58,68.10
2016,11,04,13,59,69.00
2016,11,04,14,00,69.70
2016,11,04,14,01,70.00
2016,11,04,14,02,70.00
2016,11,04,14,03,71.60
2016,11,04,14,04,73.60
2016,11,04,14,05,75.70
2016,11,04,14,06,76.90
2016,11,04,14,07,77.00
2016,11,04,14,08,81.10
2016,11,04,14,09,84.20
2016,11,04,14,10,88.20
2016,11,04,14,11,90.20
2016,11,04,14,12,91.00
2016,11,04,14,13,91.00
2016,11,04,14,14,90.70
2016,11,04,14,15,89.40
2016,11,04,14,16,87.20
2016,11,04,14,17,85.20
2016,11,04,14,18,82.70
2016,11,04,14,19,79.10
2016,11,04,14,20,77.00
2016,11,04,14,21,75.30
2016,11,04,14,22,74.00
2016,11,04,14,23,72.70
2016,11,04,14,24,70.60
2016,11,04,14,25,69.20
2016,11,04,14,26,67.50
2016,11,04,14,27,67.00
2016,11,04,14,28,65.30
2016,11,04,14,29,63.10
2016,11,04,14,30,60.20
2016,11,04,14,31,55.80
2016,11,04,14,32,52.80
2016,11,04,14,33,48.20
2016,11,04,14,34,43.20
2016,11,04,14,35,39.80
2016,11,04,14,36,38.50
2016,11,04,14,37,37.60
2016,11,04,14,38,39.30
2016,11,04,14,39,40.70
2016,11,04,14,40,43.60
2016,11,04,14,41,47.30
2016,11,04,14,42,51.10
2016,11,04,14,43,55.80
2016,11,04,14,44,61.00
2016,11,04,14,45,68.80
2016,11,04,14,46,77.80
2016,11,04,14,47,88.10
2016,11,04,14,48,96.20
2016,11,04,14,49,101.00
2016,11,04,14,50,100.30
2016,11,04,14,51,94.10
2016,11,04,14,52,84.00
2016,11,04,14,53,72.60
2016,11,04,14,54,64.80
2016,11,04,14,55,62.00
2016,11,04,14,56,62.00
2016,11,04,14,57,62.50
2016,11,04,14,58,65.80
2016,11,04,14,59,69.00
2016,11,04,15,00,69.00
2016,11,04,15,01,69.00
2016,11,04,15,02,68.20
2016,11,04,15,03,66.20
2016,11,04,15,04,64.10
2016,11,04,15,05,63.00
2016,11,04,15,06,63.00
2016,11,04,15,07,64.20
2016,11,04,15,08,66.20
2016,11,04,15,09,70.20
2016,11,04,15,10,74.70
2016,11,04,15,11,76.70
2016,11,04,15,12,78.50
2016,11,04,15,13,79.00
2016,11,04,15,14,79.00
2016,11,04,15,15,77.20
2016,11,04,15,16,77.00
2016,11,04,15,17,76.00
2016,11,04,15,18,73.80
2016,11,04,15,19,69.90
2016,11,04,15,20,67.90
2016,11,04,15,21,60.80
2016,11,04,15,22,55.40
2016,11,04,15,23,51.90
2016,11,04,15,24,48.10
2016,11,04,15,25,45.20
2016,11,04,15,26,43.20
2016,11,04,15,27,42.00
2016,11,04,15,28,42.00
2016,11,04,15,29,42.00
2016,11,04,15,30,40.80
2016,11,04,15,31,38.10
2016,11,04,15,32,35.60
2016,11,04,15,33,35.00
2016,11,04,15,34,35.00
2016,11,04,15,35,35.00
2016,11,04,15,36,33.40
2016,11,04,15,37,32.20
2016,11,04,15,38,30.20
2016,11,04,15,39,30.00
2016,11,04,15,40,32.00
2016,11,04,15,41,33.00
2016,11,04,15,42,33.00
2016,11,04,15,43,33.40
2016,11,04,15,44,35.00
2016,11,04,15,45,35.00
2016,11,04,15,46,35.60
2016,11,04,15,47,36.30
2016,11,04,15,48,35.00
2016,11,04,15,49,35.00
2016,11,04,15,50,35.00
2016,11,04,15,51,35.00
2016,11,04,15,52,35.00
2016,11,04,15,53,35.00
2016,11,04,15,54,37.40
2016,11,04,15,55,42.20
2016,11,04,15,56,48.90
2016,11,04,15,57,59.10
2016,11,04,15,58,80.50
2016,11,04,15,59,91.90
2016,11,04,16,00,108.30
2016,11,04,16,01,132.60
2016,11,04,16,02,120.80
2016,11,04,16,03,113.90
2016,11,04,16,04,110.60
2016,11,04,16,05,100.90
2016,11,04,16,06,88.20
2016,11,04,16,07,75.00
2016,11,04,16,08,65.80
2016,11,04,16,09,60.20
2016,11,04,16,10,54.20
2016,11,04,16,11,49.50
2016,11,04,16,12,45.10
2016,11,04,16,13,41.20
2016,11,04,16,14,39.50
2016,11,04,16,15,39.00
2016,11,04,16,16,39.00
2016,11,04,16,17,39.00
2016,11,04,16,18,39.00
2016,11,04,16,19,39.00
2016,11,04,16,20,37.60
2016,11,04,16,21,38.50
2016,11,04,16,22,39.80
2016,11,04,16,23,41.70
2016,11,04,16,24,42.00
2016,11,04,16,25,40.10
2016,11,04,16,26,38.80
2016,11,04,16,27,34.80
2016,11,04,16,28,32.90
2016,11,04,16,29,32.00
2016,11,04,16,30,32.00
2016,11,04,16,31,32.00
2016,11,04,16,32,32.00
2016,11,04,16,33,32.00
2016,11,04,16,34,31.20
2016,11,04,16,35,30.00
2016,11,04,16,36,29.10
2016,11,04,16,37,27.10
2016,11,04,16,38,25.50
2016,11,04,16,39,23.90
2016,11,04,16,40,21.80
2016,11,04,16,41,19.00
2016,11,04,16,42,16.60
2016,11,04,16,43,14.60
2016,11,04,16,44,12.50
2016,11,04,16,45,12.00
2016,11,04,16,46,12.00
2016,11,04,16,47,12.00
2016,11,04,16,48,13.90
2016,11,04,16,49,14.00
2016,11,04,16,50,14.20
2016,11,04,16,51,15.80
2016,11,04,16,52,14.00
2016,11,04,16,53,14.40
2016,11,04,16,54,16.00
2016,11,04,16,55,15.40
2016,11,04,16,56,13.30
2016,11,04,16,57,11.60
2016,11,04,16,58,10.10
2016,11,04,16,59,8.20
2016,11,04,17,00,7.00
2016,11,04,17,01,8.00
2016,11,04,17,02,9.00
2016,11,04,17,03,9.00
2016,11,04,17,04,9.00
2016,11,04,17,05,9.00
2016,11,04,17,06,7.60
2016,11,04,17,07,7.00
2016,11,04,17,08,7.00
2016,11,04,17,09,5.30
2016,11,04,17,10,5.00
2016,11,04,17,11,5.00
2016,11,04,17,12,5.00
2016,11,04,17,13,5.00
2016,11,04,17,14,5.00
2016,11,04,17,15,5.00
2016,11,04,17,16,4.00
2016,11,04,17,17,0.00
2016,11,04,17,18,0.00
2016,11,04,17,19,0.00
2016,11,04,17,20,0.00
2016,11,04,17,21,0.00
2016,11,04,17,22,0.00
2016,11,04,17,23,0.00
2016,11,04,17,24,0.00
2016,11,04,17,25,0.00
2016,11,04,17,26,0.00
2016,11,04,17,27,0.00
2016,11,04,17,28,0.00
2016,11,04,17,29,0.00
2016,11,04,17,30,0.00
2016,11,04,17,31,0.00
2016,11,04,17,32,0.00
2016,11,04,17,33,0.00
2016,11,04,17,34,0.00
2016,11,04,17,35,0.00
2016,11,04,17,36,0.00
2016,11,04,17,37,0.00
2016,11,04,17,38,0.00
2016,11,04,17,39,0.00
2016,11,04,17,40,0.00
2016,11,04,17,41,0.00
2016,11,04,17,42,0.00
2016,11,04,17,43,0.00
2016,11,04,17,44,0.00
2016,11,04,17,45,0.00
2016,11,04,17,46,0.00
2016,11,04,17,47,0.00
2016,11,04,17,48,0.00
2016,11,04,17,49,0.00
2016,11,04,17,50,0.00
2016,11,04,17,51,0.00
2016,11,04,17,52,0.00
2016,11,04,17,53,0.00
2016,11,04,17,54,0.00
2016,11,04,17,55,0.00
2016,11,04,17,56,0.00
2016,11,04,17,57,0.00
2016,11,04,17,58,0.00
2016,11,04,17,59,0.00